Regional Weather Roundup
Issued by NWS

Home | Current Version | Previous Version | Text Only | Print | Product List | Glossary Off
Versions: 1 2 3 4 5 6 7 8 9 10 11 12 13 14 15 16 17 18 19 20 21 22 23 24 25 26 27 28 29 30 31 32 33 34 35 36 37 38 39 40 41 42 43 44 45 46 47 48 49

000
ASUS43 KDMX 290907
RWRIA

WEATHER ROUNDUP FOR IOWA
NATIONAL WEATHER SERVICE DES MOINES IA
400 AM CDT MON SEP 29 2014

NOTE: "FAIR" INDICATES FEW OR NO CLOUDS BELOW 12,000 FEET WITH NO
SIGNIFICANT WEATHER AND/OR OBSTRUCTIONS TO VISIBILITY.

* - THESE STATIONS ARE NOT NWS STATIONS...THUS NOT UNDER NWS
QUALITY CONTROL.  THEY ALSO DO NOT REPORT WEATHER SUCH
AS PRECIPITATION OR FOG.

IAZ001>003-012>014-020>022-031>034-043>046-291000-
   NORTHWEST IOWA

CITY           SKY/WX    TMP DP  RH WIND       PRES   REMARKS
CARROLL *      CLOUDY    63  59  88 S3        30.07S
CHEROKEE *     CLOUDY    66  59  77 CALM      30.07S
DENISON *      CLOUDY    61  59  94 CALM      30.05S
LE MARS *        N/A     64  63  94 SW5       30.08S
ORANGE CITY *  LGT RAIN  68  63  83 W3        30.06F
SHELDON *      CLOUDY    61  61 100 SE3       30.06F
SIOUX CITY     MOCLDY    66  60  81 N18       30.07R
SPENCER        PTCLDY    59  56  89 W5        30.07S
STORM LAKE *   CLOUDY    66  57  72 NW5       30.09R
$$

IAZ055>058-069>071-079>083-090>094-291000-
   SOUTHWEST IOWA

CITY           SKY/WX    TMP DP  RH WIND       PRES   REMARKS
ATLANTIC *     CLOUDY    55  54  94 N3        30.06S
AUDUBON *      PTCLDY    57  52  82 CALM      30.08S
CLARINDA *     FOG       52  52 100 CALM      30.08S VSB 1
COUNCIL BLFS * CLEAR     61  59  94 S5        30.04F
CRESTON *      CLEAR     61  57  88 CALM      30.07F
HARLAN  *      CLEAR     55  55 100 CALM      30.10S FOG
LAMONI         CLEAR     64  58  80 S3        30.07S
RED OAK *      CLEAR     55  54  94 CALM      30.06F
SHENANDOAH *   CLEAR     57  55  94 CALM      30.06F
$$

IAZ047>049-059>061-072>074-084-291000-
   CENTRAL IOWA

CITY           SKY/WX    TMP DP  RH WIND       PRES   REMARKS
AMES           PTCLDY    53  53 100 CALM      30.06F FOG
ANKENY *       CLEAR     55  55 100 CALM      30.06S
CHARITON *     CLEAR     61  57  88 CALM      30.07S
DES MOINES     CLEAR     64  57  78 CALM      30.06S
GRINNELL*      CLEAR     55  54  94 CALM      30.07S
KNOXVILLE *    CLEAR     59  57  94 W5        30.05S
PELLA *          N/A     59  59 100 CALM      30.07S FOG
PERRY *          N/A     57  55  94 CALM      30.06S FOG
$$

IAZ004>006-015-016-023>025-035-036-291000-
   NORTH CENTRAL IOWA

CITY           SKY/WX    TMP DP  RH WIND       PRES   REMARKS
ALGONA *       PTCLDY    61  55  82 SW7       30.06S
CLARION *      CLEAR     55  55 100 S5        30.06S
ESTHERVILLE    MOCLDY    58  56  93 NW6       30.07S
FORT DODGE *   MOCLDY    61  55  82 CALM      30.07S
MASON CITY     CLEAR     60  55  83 SW7       30.07S
FOREST CITY *  FOG       52  52 100 CALM      30.06S VSB 1/2
IOWA FALLS *     N/A     57  55  94 CALM      30.07F
$$

IAZ007>011-017>019-026>030-037>042-050>054-066-291000-
   NORTHEAST IOWA

CITY           SKY/WX    TMP DP  RH WIND       PRES   REMARKS
CHARLES CITY * CLEAR     57  54  88 SW5       30.06F
CLINTON *      CLEAR     55  52  88 W5        30.07S
DECORAH *      PTCLDY    61  55  82 CALM      30.04F
MONTICELLO *   CLEAR     54  54 100 CALM      30.05S FOG
OELWEIN *      CLEAR     57  55  94 CALM      30.06F
WATERLOO       CLEAR     53  51  93 CALM      30.05S
$$

IAZ064-065-067-068-078-291000-
   EAST CENTRAL IOWA

CITY           SKY/WX    TMP DP  RH WIND       PRES   REMARKS
IOWA CITY      CLEAR     58  57  97 CALM      30.05F
MT. PLEASANT * FOG       57  55  94 CALM      30.06S VSB 1/4
MUSCATINE *    CLEAR     55  54  94 CALM      30.05S
QUAD CITIES    CLEAR     55  52  89 CALM      30.04F
$$

IAZ062-063-075>077-085>089-095>099-291000-
   SOUTHEAST IOWA

CITY           SKY/WX    TMP DP  RH WIND       PRES   REMARKS
BURLINGTON     CLEAR     57  56  96 CALM      30.04F FOG
FAIRFIELD *    CLEAR     57  55  94 CALM      30.06S FOG
FORT MADISON * CLEAR     61  59  94 CALM      30.06S
KEOKUK *       CLEAR     59  57  94 W5        30.05S FOG
OSKALOOSA *      N/A     59  59 100 CALM      30.06S FOG
CENTERVILLE *  CLEAR     55  55 100 W3        30.08S
OTTUMWA        FOG       56  55  97 W3        30.05F VSB 1/4
WASHINGTON *   CLEAR     57  57 100 CALM      30.05F
$$

ABBREVIATIONS USED IN REMARKS
   TC - TEMPERATURES IN CELSIUS
  WCI - WIND CHILL INDEX
   HX - HEAT INDEX
  VSB - VISIBILITY
$$




USA.gov is the U.S. government's official web portal to all federal, state and local government web resources and services.